Location: Berg
(47.2344°N, 9.5296°E)
Time: 05:53:52
(UTC+00:00)

Nauka - Pass Details

Date: 21 September 2021
Orbit: 418 x 423 km, 51.6° (Epoch: 15 October)

Event Time Altitude Azimuth Distance (km) Brightness Sun altitude
Rises 18:00:30 0° 241° (WSW) 2,355 ? -7.4°
Reaches altitude 10° 18:02:35 10° 240° (WSW) 1,495 ? -7.8°
Maximum altitude 18:05:56 82° 154° (SSE) 428 ? -8.3°
Drops below altitude 10° 18:09:19 10° 66° (ENE) 1,504 ? -8.9°
Enters shadow 18:09:35 - 66° (ENE) 1,612 ? -9.0°
